Jasper, AL

5:31 AM CDT on August 20, 2019 (GMT -0500)
Walker County-Bevill

Weather History for KJFX - June, 2019

Change the Weather History Date:

Tuesday, June 4, 2019

  Actual Average Record
Temperature  
Mean Temperature 80 °F -  
Max Temperature 95 °F 85 °F 100 °F (2011)
Min Temperature 64 °F 60 °F 46 °F (1972)
Cooling Degree Days 14    
Growing Degree Days 30 (Base 50)    
Moisture  
Dew Point 66 °F    
Average Humidity 73    
Maximum Humidity 100    
Minimum Humidity 34    
Precipitation  
Precipitation 0.00 in - - ()
Sea Level Pressure  
Sea Level Pressure 30.04 in    
Wind  
Wind Speed - (North)    
Max Wind Speed -    
Max Gust Speed -    
Averages and records for this station are not official NWS values.
T = Trace of Precipitation, MM = Missing Value Source: NWS Daily Summary

Daily Weather History Graph

Daily Weather History Graph

Search for Another Location

Airport or City:

Astronomy

Jun. 04, 2019 Rise Set
Actual Time 5:38 AM CDT 7:56 PM CDT
Civil Twilight 5:09 AM CDT 8:25 PM CDT
Nautical Twilight 4:34 AM CDT 9:00 PM CDT
Astronomical Twilight 3:56 AM CDT 9:39 PM CDT
Moon 6:46 AM CDT (6/4) 9:24 PM CDT (6/4)
Length of Visible Light 15h 15m
Length of Day
14h 18m
New Moon, 2% of the Moon is Illuminated
Jun 4
New Moon
Jun 10
First Quarter
Jun 17
Full
Jun 25
Last Quarter
Jul 2
New

Hourly Weather History & Observations

Time (CDT) Temp. Heat Index Dew Point Humidity Pressure Visibility Wind Dir Wind Speed Gust Speed Precip Events Conditions
12:15 AM 66.2 °F - 64.4 °F 94% 30.04 in - North - - N/A   Unknown
12:35 AM 64.4 °F - 64.4 °F 100% 30.05 in - North - - N/A   Unknown
12:55 AM 64.4 °F - 64.4 °F 100% 30.04 in - North - - N/A   Unknown
1:15 AM 64.4 °F - 64.4 °F 100% 30.04 in - North - - N/A   Unknown
1:35 AM 64.4 °F - 64.4 °F 100% 30.04 in - North - - N/A   Unknown
1:55 AM 64.4 °F - 64.4 °F 100% 30.04 in - North - - N/A   Unknown
2:15 AM 64.4 °F - 64.4 °F 100% 30.04 in - North - - N/A   Unknown
2:35 AM 64.4 °F - 64.4 °F 100% 30.04 in - North - - N/A   Unknown
3:15 AM 64.4 °F - 64.4 °F 100% 30.04 in - North - - N/A   Unknown
3:35 AM 64.4 °F - 64.4 °F 100% 30.04 in - North - - N/A   Unknown
3:55 AM 64.4 °F - 64.4 °F 100% 30.03 in - North - - N/A   Unknown
4:15 AM 64.4 °F - 64.4 °F 100% 30.04 in - North - - N/A   Unknown
4:35 AM 64.4 °F - 64.4 °F 100% 30.04 in - North - - N/A   Unknown
4:55 AM 64.4 °F - 64.4 °F 100% 30.04 in - North - - N/A   Unknown
5:15 AM 64.4 °F - 64.4 °F 100% 30.05 in - North - - N/A   Unknown
5:35 AM 64.4 °F - 64.4 °F 100% 30.05 in - North - - N/A   Unknown
5:55 AM 64.4 °F - 64.4 °F 100% 30.06 in - North - - N/A   Unknown
6:15 AM 64.4 °F - 64.4 °F 100% 30.07 in - North - - N/A   Unknown
6:35 AM 66.2 °F - 66.2 °F 100% 30.07 in - North - - N/A   Unknown
6:55 AM 68.0 °F - 68.0 °F 100% 30.07 in - North - - N/A   Unknown
7:15 AM 69.8 °F - 66.2 °F 88% 30.07 in - North - - N/A   Unknown
7:35 AM 69.8 °F - 64.4 °F 83% 30.07 in - North - - N/A   Unknown
7:55 AM 75.2 °F - 62.6 °F 65% 30.08 in - North - - N/A   Unknown
8:15 AM 75.2 °F - 60.8 °F 61% 30.09 in - North - - N/A   Unknown
8:35 AM 75.2 °F - 60.8 °F 61% 30.09 in - North - - N/A   Unknown
8:55 AM 75.2 °F - 60.8 °F 61% 30.09 in - North - - N/A   Unknown
9:15 AM 75.2 °F - 60.8 °F 61% 30.09 in - North - - N/A   Unknown
9:35 AM 77.0 °F - 60.8 °F 57% 30.09 in - North - - N/A   Unknown
9:55 AM 77.0 °F - 62.6 °F 61% 30.09 in - North - - N/A   Unknown
10:15 AM 78.8 °F - 62.6 °F 57% 30.09 in - North - - N/A   Unknown
10:35 AM 80.6 °F 81.8 °F 62.6 °F 54% 30.09 in - North - - N/A   Unknown
10:55 AM 82.4 °F 83.4 °F 62.6 °F 51% 30.09 in - North - - N/A   Unknown
11:15 AM 82.4 °F 83.9 °F 64.4 °F 54% 30.08 in - North - - N/A   Unknown
11:35 AM 84.2 °F 85.6 °F 64.4 °F 51% 30.08 in - North - - N/A   Unknown
11:55 AM 86.0 °F 87.3 °F 64.4 °F 48% 30.08 in - North - - N/A   Unknown
12:15 PM 87.8 °F 89.4 °F 64.4 °F 46% 30.08 in - North - - N/A   Unknown
12:35 PM 87.8 °F 89.4 °F 64.4 °F 46% 30.07 in - North - - N/A   Unknown
12:55 PM 87.8 °F 89.4 °F 64.4 °F 46% 30.07 in - North - - N/A   Unknown
1:15 PM 87.8 °F 90.4 °F 66.2 °F 49% 30.06 in - North - - N/A   Unknown
1:35 PM 89.6 °F 92.2 °F 66.2 °F 46% 30.06 in - North - - N/A   Unknown
2:15 PM 93.2 °F 96.2 °F 66.2 °F 41% 30.05 in - North - - N/A   Unknown
2:35 PM 93.2 °F 96.2 °F 66.2 °F 41% 30.05 in - North - - N/A   Unknown
2:55 PM 95.0 °F 97.0 °F 64.4 °F 36% 30.04 in - North - - N/A   Unknown
3:15 PM 93.2 °F 94.1 °F 62.6 °F 36% 30.04 in - North - - N/A   Unknown
3:35 PM 95.0 °F 96.0 °F 62.6 °F 34% 30.03 in - North - - N/A   Unknown
3:55 PM 95.0 °F 96.0 °F 62.6 °F 34% 30.02 in - North - - N/A   Unknown
4:15 PM 95.0 °F 96.0 °F 62.6 °F 34% 30.02 in - North - - N/A   Unknown
4:35 PM 95.0 °F 97.0 °F 64.4 °F 36% 30.01 in - North - - N/A   Unknown
4:55 PM 93.2 °F 94.9 °F 64.4 °F 38% 30.00 in - North - - N/A   Unknown
5:15 PM 93.2 °F 94.9 °F 64.4 °F 38% 30.00 in - North - - N/A   Unknown
5:35 PM 93.2 °F 94.9 °F 64.4 °F 38% 29.99 in - North - - N/A   Unknown
5:55 PM 89.6 °F 93.4 °F 68.0 °F 49% 29.99 in - North - - N/A   Unknown
6:15 PM 87.8 °F 91.4 °F 68.0 °F 52% 29.98 in - North - - N/A   Unknown
6:35 PM 87.8 °F 91.4 °F 68.0 °F 52% 29.97 in - North - - N/A   Unknown
6:55 PM 86.0 °F 90.4 °F 69.8 °F 58% 29.98 in - North - - N/A   Unknown
7:35 PM 78.8 °F - 71.6 °F 78% 29.98 in - North - - N/A   Unknown
7:55 PM 77.0 °F - 71.6 °F 83% 29.98 in - North - - N/A   Unknown
8:15 PM 75.2 °F - 69.8 °F 83% 29.98 in - North - - N/A   Unknown
8:35 PM 73.4 °F - 69.8 °F 88% 29.99 in - North - - N/A   Unknown
8:55 PM 73.4 °F - 69.8 °F 88% 29.99 in - North - - N/A   Unknown
9:15 PM 73.4 °F - 71.6 °F 94% 29.99 in - North - - N/A   Unknown
9:35 PM 73.4 °F - 71.6 °F 94% 29.99 in - North - - N/A   Unknown
9:55 PM 73.4 °F - 71.6 °F 94% 30.00 in - North - - N/A   Unknown
10:15 PM 73.4 °F - 71.6 °F 94% 30.00 in - North - - N/A   Unknown
10:35 PM 73.4 °F - 71.6 °F 94% 30.00 in - North - - N/A   Unknown
10:55 PM 71.6 °F - 71.6 °F 100% 30.00 in - North - - N/A   Unknown
11:15 PM 71.6 °F - 71.6 °F 100% 30.00 in - North - - N/A   Unknown
11:35 PM 71.6 °F - 69.8 °F 94% 30.00 in - North - - N/A   Unknown
11:55 PM 71.6 °F - 71.6 °F 100% 30.00 in - North - - N/A   Unknown